{"data":{"norad_id":61786,"epoch":"2026-09-22T21:30:52.412544Z","epoch_age_seconds":95093,"freshness":"FRESH","line1":"1 61786U 24199BD  26265.89643996  .00029118  00000+0  44394-3 0  9995","line2":"2 61786  97.2755 141.4053 0005329 299.2221  60.8500 15.54419418149464","mean_motion":15.54419418,"eccentricity":0.0005329,"inclination_deg":97.2755,"raan_deg":141.4053,"arg_perigee_deg":299.2221,"mean_anomaly_deg":60.85,"bstar":0.00044394,"rev_number":14946,"period_min":92.639089767212,"perigee_km":400.22671887647,"apogee_km":407.45495085287,"semimajor_km":6781.9778348647,"source":"CELESTRAK","updated_at":"2026-09-23T09:00:21.040451Z"}}